Location: River House Observatory
(37.8577°N, 76.3548°W)
Time: 14:21:22
(UTC-04:00)

NOSS 3-1 (C) - Visible Passes

Search period start: 30 May 2016 00:00
Search period end: 09 June 2016 00:00
Orbit: 854 x 1354 km, 63.4° (Epoch: 15 May)

Date Brightness Start Highest point End Pass type
(mag) Time Alt. Az. Time Alt. Az. Time Alt. Az.
30 May 3.8 04:41:32 10° SSW 04:47:13 61° ESE 04:53:29 10° NE visible
31 May 4.6 03:57:44 13° S 04:02:14 35° ESE 04:07:49 10° NE visible
01 Jun 5.3 03:14:08 13° SE 03:17:22 19° ESE 03:21:35 10° ENE visible
01 Jun 3.6 05:01:41 10° SW 05:07:27 61° NW 05:13:52 10° NNE visible
02 Jun 3.4 04:17:52 19° SSW 04:22:11 82° ESE 04:28:36 10° NE visible
03 Jun 4.0 03:34:09 26° S 03:37:05 47° ESE 03:43:06 10° NE visible
04 Jun 4.7 02:50:24 23° SE 02:52:09 27° ESE 02:57:14 10° NE visible
04 Jun 4.0 04:37:48 15° WSW 04:42:34 46° NW 04:48:49 10° NNE visible
05 Jun 5.3 02:06:36 14° ESE 02:07:21 14° ESE 02:10:29 10° ENE visible
05 Jun 3.4 03:54:00 29° SW 03:57:11 76° WNW 04:03:39 10° NNE visible
06 Jun 3.5 03:10:09 43° S 03:11:59 65° ESE 03:18:17 10° NE visible
06 Jun 5.0 04:58:37 10° W 05:03:26 24° NW 05:08:40 10° NNE visible
07 Jun 4.1 02:26:16 35° SE 02:26:58 37° ESE 02:32:39 10° NE visible
07 Jun 4.4 04:13:40 17° WSW 04:17:44 36° NW 04:23:43 10° NNE visible
08 Jun 5.0 01:42:21 20° ESE 01:42:21 20° ESE 01:46:29 10° ENE visible
08 Jun 3.7 03:29:44 34° WSW 03:32:15 58° NW 03:38:38 10° NNE visible
